sat.trackr.live / text

‹ back to catalog

STARLINK-11365 [DTC]

NORAD 62886 · 2025-024H

PAYLOAD ACTIVE UNKNOWN

§ Identity

Operator
Country
US
Launch date
2025-02-04
Launch site
AFETR
Launch vehicle
Mass (kg)
RCS (m²)

Purposes: comms

External: N2YO · Heavens-Above · Gunter

§ Orbital elements

Epoch: 2026-09-20T21:55:04.142496Z

Period
91.66 min
Inclination
43.0007°
Eccentricity
0.0000644
Mean motion
15.70956555 rev/d
Perigee alt
355.7 km
Apogee alt
356.6 km
Semi-major
6,734.3 km
B*
9.6715e-4
RAAN
84.4022°
Arg perigee
4.8689°
Mean anomaly
355.2185°
Rev number
9,417

§ Raw data

STARLINK-11365 [DTC]1 62886U 25024H   26263.91324239  .00126167  00000+0  96715-3 0  99982 62886  43.0007  84.4022 0000644   4.8689 355.2185 15.70956555 94173

JSON: /api/v1/satellites/62886 · /tle

For live sub-satellite position, see the globe view (requires WebGL).

§ Visibility from observer

Set your observer location to see the next 7 days of passes ≥ 10°. The values pass through the URL so the page stays shareable.

No JS? Fill the form by hand. The geolocation button needs JavaScript.